QPF
0.12 0.16 0.19 0.19 0.18 0.19 0.19 0.18 0.16 0.13 0.10 0.09 0.08 0.08 0.07 0.07 0.09 0.11 0.11 0.07 0.05 0.04 0.05 0.06 0.06 0.06 0.06 0.07 0.10 0.10 0.08 0.08 0.07 0.08 0.07 0.08 0.09 0.09 0.05 0.03 0.03 0.04 0.05
0.11 0.17 0.22 0.21 0.17 0.14 0.18 0.18 0.18 0.16 0.11 0.10 0.09 0.07 0.06 0.08 0.09 0.07 0.08 0.07 0.04 0.03 0.04 0.06 0.07 0.08 0.07 0.07 0.09 0.11 0.10 0.09 0.09 0.09 0.10 0.09 0.08 0.08 0.07 0.05 0.04 0.04 0.05
0.17 0.19 0.20 0.20 0.16 0.12 0.14 0.17 0.18 0.17 0.15 0.14 0.12 0.08 0.07 0.09 0.09 0.07 0.05 0.05 0.05 0.04 0.05 0.06 0.07 0.08 0.09 0.10 0.10 0.08 0.10 0.11 0.09 0.09 0.09 0.09 0.09 0.09 0.08 0.08 0.07 0.06 0.06
0.09 0.10 0.12 0.12 0.13 0.14 0.14 0.15 0.16 0.20 0.21 0.19 0.15 0.11 0.09 0.11 0.10 0.07 0.05 0.05 0.05 0.04 0.06 0.06 0.06 0.07 0.08 0.10 0.10 0.10 0.09 0.08 0.06 0.07 0.08 0.10 0.11 0.11 0.10 0.09 0.11 0.10 0.06
0.05 0.05 0.06 0.06 0.08 0.11 0.11 0.12 0.17 0.18 0.20 0.20 0.16 0.13 0.10 0.11 0.14 0.10 0.10 0.08 0.05 0.05 0.05 0.07 0.07 0.06 0.06 0.07 0.07 0.09 0.09 0.10 0.10 0.09 0.10 0.10 0.11 0.12 0.12 0.10 0.09 0.09 0.09
0.06 0.07 0.05 0.04 0.04 0.06 0.07 0.08 0.09 0.10 0.11 0.12 0.10 0.10 0.10 0.11 0.15 0.14 0.11 0.10 0.08 0.07 0.06 0.07 0.09 0.11 0.11 0.09 0.08 0.09 0.09 0.10 0.12 0.13 0.11 0.11 0.11 0.12 0.14 0.13 0.10 0.09 0.08
0.10 0.11 0.06 0.06 0.05 0.06 0.04 0.05 0.06 0.07 0.05 0.05 0.06 0.07 0.07 0.09 0.10 0.09 0.09 0.09 0.08 0.08 0.09 0.08 0.10 0.14 0.16 0.16 0.15 0.13 0.12 0.11 0.12 0.12 0.10 0.08 0.08 0.11 0.12 0.12 0.12 0.11 0.10
0.09 0.07 0.05 0.04 0.03 0.06 0.04 0.04 0.06 0.06 0.05 0.04 0.07 0.09 0.10 0.10 0.08 0.06 0.05 0.06 0.05 0.06 0.05 0.06 0.08 0.10 0.13 0.16 0.11 0.09 0.09 0.10 0.11 0.10 0.10 0.10 0.09 0.09 0.11 0.10 0.10 0.11 0.11
0.04 0.04 0.03 0.03 0.03 0.03 0.05 0.06 0.05 0.07 0.06 0.05 0.05 0.08 0.11 0.11 0.10 0.08 0.05 0.05 0.05 0.06 0.07 0.07 0.08 0.09 0.10 0.10 0.08 0.05 0.05 0.05 0.06 0.07 0.08 0.09 0.10 0.09 0.10 0.11 0.10 0.10 0.11
0.02 0.02 0.02 0.02 0.02 0.02 0.04 0.03 0.04 0.06 0.05 0.04 0.05 0.04 0.05 0.08 0.08 0.08 0.06 0.06 0.05 0.05 0.05 0.05 0.06 0.09 0.08 0.08 0.07 0.04 0.03 0.04 0.04 0.06 0.06 0.05 0.05 0.05 0.06 0.08 0.10 0.09 0.09
0.02 0.02 0.02 0.02 0.03 0.03 0.02 0.02 0.03 0.03 0.03 0.03 0.03 0.03 0.04 0.05 0.05 0.04 0.05 0.04 0.05 0.05 0.05 0.04 0.04 0.05 0.06 0.07 0.06 0.04 0.02 0.02 0.03 0.03 0.04 0.05 0.05 0.05 0.05 0.06 0.10 0.09 0.08
0.03 0.02 0.02 0.03 0.03 0.04 0.03 0.02 0.02 0.03 0.03 0.03 0.03 0.03 0.04 0.04 0.04 0.04 0.04 0.04 0.04 0.03 0.04 0.04 0.04 0.04 0.04 0.05 0.04 0.03 0.02 0.01 0.02 0.02 0.02 0.02 0.03 0.04 0.06 0.06 0.08 0.09 0.07
0.04 0.03 0.02 0.02 0.03 0.03 0.02 0.02 0.02 0.02 0.02 0.02 0.02 0.02 0.03 0.03 0.03 0.04 0.05 0.04 0.04 0.03 0.03 0.03 0.04 0.03 0.03 0.03 0.04 0.03 0.01 0.01 0.01 0.01 0.01 0.01 0.01 0.02 0.03 0.04 0.05 0.07 0.09
0.03 0.03 0.02 0.01 0.02 0.02 0.02 0.03 0.02 0.02 0.03 0.03 0.02 0.03 0.02 0.01 0.02 0.03 0.03 0.04 0.04 0.04 0.04 0.03 0.03 0.02 0.03 0.03 0.04 0.03 0.02 0.02 0.02 0.01 0.00 0.00 0.00 0.00 0.01 0.01 0.02 0.03 0.04
0.03 0.02 0.02 0.02 0.02 0.02 0.02 0.02 0.01 0.02 0.04 0.03 0.04 0.03 0.02 0.02 0.02 0.02 0.03 0.03 0.05 0.05 0.04 0.04 0.03 0.02 0.03 0.04 0.03 0.02 0.02 0.02 0.02 0.01 0.01 0.00 0.01 0.00 0.00 0.00 0.01 0.01 0.01
0.03 0.02 0.03 0.03 0.02 0.02 0.03 0.03 0.01 0.02 0.03 0.03 0.03 0.03 0.03 0.02 0.02 0.02 0.03 0.03 0.04 0.05 0.04 0.04 0.04 0.04 0.03 0.02 0.02 0.03 0.03 0.03 0.02 0.01 0.01 0.01 0.01 0.01 0.00 0.00 0.00 0.01 0.01
0.05 0.05 0.04 0.03 0.03 0.02 0.02 0.03 0.03 0.04 0.03 0.02 0.02 0.03 0.03 0.03 0.03 0.03 0.03 0.04 0.04 0.05 0.06 0.04 0.04 0.05 0.06 0.06 0.06 0.04 0.03 0.03 0.03 0.02 0.01 0.01 0.01 0.01 0.00 0.00 0.00 0.00 0.00
0.05 0.06 0.06 0.05 0.04 0.04 0.03 0.03 0.04 0.04 0.03 0.03 0.03 0.04 0.03 0.03 0.04 0.04 0.04 0.04 0.05 0.06 0.06 0.05 0.05 0.06 0.07 0.06 0.07 0.05 0.04 0.03 0.03 0.03 0.01 0.01 0.01 0.01 0.00 0.00 0.00 0.01 0.01
0.04 0.05 0.06 0.06 0.05 0.06 0.05 0.04 0.04 0.03 0.03 0.03 0.03 0.04 0.04 0.04 0.04 0.05 0.05 0.04 0.04 0.04 0.06 0.06 0.05 0.06 0.05 0.05 0.06 0.05 0.04 0.04 0.02 0.02 0.01 0.01 0.01 0.01 0.01 0.01 0.00 0.00 0.01
0.04 0.05 0.06 0.06 0.05 0.05 0.05 0.05 0.05 0.05 0.04 0.04 0.04 0.05 0.05 0.05 0.05 0.04 0.05 0.04 0.04 0.03 0.03 0.04 0.03 0.03 0.04 0.05 0.06 0.05 0.03 0.03 0.02 0.02 0.02 0.02 0.02 0.02 0.01 0.01 0.00 0.00 0.01
0.05 0.07 0.08 0.07 0.07 0.05 0.04 0.06 0.07 0.07 0.05 0.04 0.05 0.05 0.06 0.06 0.05 0.05 0.05 0.04 0.04 0.03 0.03 0.03 0.03 0.03 0.03 0.04 0.03 0.03 0.02 0.02 0.02 0.03 0.04 0.03 0.03 0.03 0.02 0.01 0.01 0.00 0.01
0.05 0.06 0.07 0.06 0.05 0.04 0.05 0.06 0.07 0.08 0.07 0.06 0.07 0.08 0.08 0.07 0.07 0.07 0.06 0.05 0.05 0.04 0.03 0.04 0.04 0.03 0.03 0.03 0.03 0.03 0.03 0.02 0.02 0.02 0.03 0.04 0.04 0.05 0.05 0.03 0.01 0.01 0.01
0.03 0.03 0.05 0.05 0.03 0.04 0.05 0.05 0.05 0.06 0.07 0.08 0.11 0.14 0.12 0.09 0.10 0.09 0.07 0.06 0.06 0.05 0.05 0.06 0.06 0.05 0.04 0.04 0.05 0.04 0.04 0.04 0.04 0.03 0.05 0.05 0.07 0.08 0.08 0.06 0.03 0.01 0.01
0.03 0.03 0.03 0.03 0.04 0.04 0.04 0.04 0.04 0.04 0.04 0.05 0.09 0.13 0.13 0.10 0.09 0.07 0.06 0.05 0.04 0.05 0.07 0.08 0.08 0.08 0.06 0.06 0.06 0.06 0.07 0.07 0.07 0.06 0.05 0.06 0.05 0.06 0.07 0.06 0.03 0.02 0.01
0.03 0.03 0.03 0.02 0.03 0.04 0.03 0.02 0.03 0.02 0.02 0.03 0.04 0.06 0.07 0.06 0.05 0.04 0.04 0.04 0.04 0.03 0.03 0.04 0.05 0.05 0.06 0.05 0.06 0.06 0.07 0.07 0.07 0.06 0.05 0.05 0.05 0.05 0.06 0.05 0.03 0.02 0.01
0.04 0.04 0.03 0.03 0.03 0.03 0.02 0.02 0.02 0.03 0.02 0.02 0.03 0.03 0.02 0.03 0.03 0.03 0.04 0.04 0.04 0.03 0.03 0.03 0.04 0.04 0.05 0.05 0.06 0.06 0.06 0.06 0.05 0.05 0.05 0.05 0.06 0.06 0.06 0.06 0.05 0.03 0.02
MSLP
1013.67 1013.72 1013.71 1013.68 1013.61 1013.52 1013.42 1013.31 1013.18 1013.02 1012.84 1012.64 1012.44 1012.26 1012.13 1012.07 1012.10 1012.22 1012.41 1012.65 1012.91 1013.17 1013.40 1013.60 1013.76 1013.90 1014.04 1014.17 1014.31 1014.46 1014.61 1014.76 1014.91 1015.04 1015.17 1015.29 1015.43 1015.56 1015.70 1015.83 1015.94 1016.04 1016.11
1013.54 1013.61 1013.65 1013.66 1013.63 1013.57 1013.48 1013.34 1013.18 1012.98 1012.76 1012.53 1012.32 1012.14 1012.01 1011.96 1011.98 1012.07 1012.24 1012.45 1012.69 1012.94 1013.20 1013.45 1013.70 1013.94 1014.17 1014.38 1014.58 1014.76 1014.92 1015.04 1015.15 1015.25 1015.34 1015.45 1015.57 1015.71 1015.85 1015.98 1016.08 1016.16 1016.21
1013.42 1013.51 1013.61 1013.68 1013.71 1013.69 1013.61 1013.47 1013.28 1013.05 1012.79 1012.54 1012.30 1012.11 1011.98 1011.91 1011.91 1011.97 1012.08 1012.25 1012.45 1012.69 1012.96 1013.26 1013.58 1013.91 1014.23 1014.53 1014.80 1015.02 1015.19 1015.31 1015.39 1015.46 1015.52 1015.61 1015.72 1015.85 1016.00 1016.13 1016.25 1016.33 1016.38
1013.30 1013.43 1013.58 1013.72 1013.81 1013.85 1013.80 1013.67 1013.47 1013.21 1012.93 1012.66 1012.41 1012.21 1012.06 1011.97 1011.94 1011.95 1012.01 1012.11 1012.26 1012.46 1012.72 1013.03 1013.39 1013.79 1014.19 1014.57 1014.90 1015.17 1015.37 1015.49 1015.57 1015.61 1015.67 1015.74 1015.85 1015.98 1016.13 1016.28 1016.41 1016.51 1016.57
1013.20 1013.36 1013.56 1013.75 1013.91 1014.00 1013.99 1013.88 1013.69 1013.43 1013.14 1012.86 1012.61 1012.41 1012.27 1012.17 1012.10 1012.07 1012.07 1012.09 1012.16 1012.30 1012.50 1012.79 1013.15 1013.57 1014.02 1014.46 1014.85 1015.17 1015.40 1015.56 1015.65 1015.70 1015.76 1015.83 1015.94 1016.08 1016.24 1016.41 1016.56 1016.68 1016.76
1013.12 1013.29 1013.52 1013.76 1013.97 1014.10 1014.13 1014.05 1013.88 1013.64 1013.37 1013.12 1012.89 1012.71 1012.58 1012.49 1012.41 1012.34 1012.27 1012.22 1012.19 1012.23 1012.35 1012.56 1012.88 1013.29 1013.74 1014.21 1014.64 1015.01 1015.30 1015.50 1015.63 1015.72 1015.79 1015.88 1016.00 1016.15 1016.32 1016.50 1016.67 1016.80 1016.91
1013.05 1013.22 1013.46 1013.73 1013.96 1014.13 1014.19 1014.15 1014.01 1013.80 1013.58 1013.37 1013.19 1013.06 1012.97 1012.90 1012.83 1012.74 1012.61 1012.48 1012.35 1012.27 1012.28 1012.39 1012.62 1012.96 1013.39 1013.85 1014.31 1014.73 1015.07 1015.34 1015.52 1015.66 1015.77 1015.89 1016.03 1016.19 1016.37 1016.55 1016.73 1016.88 1017.01
1012.99 1013.14 1013.37 1013.63 1013.87 1014.05 1014.14 1014.13 1014.03 1013.88 1013.71 1013.56 1013.46 1013.40 1013.37 1013.35 1013.30 1013.20 1013.04 1012.84 1012.61 1012.42 1012.29 1012.27 1012.39 1012.64 1013.00 1013.44 1013.91 1014.36 1014.76 1015.09 1015.35 1015.55 1015.72 1015.87 1016.02 1016.19 1016.37 1016.56 1016.73 1016.89 1017.03
1012.92 1013.04 1013.23 1013.46 1013.69 1013.87 1013.97 1013.99 1013.94 1013.84 1013.74 1013.67 1013.64 1013.66 1013.70 1013.74 1013.74 1013.65 1013.48 1013.23 1012.92 1012.62 1012.37 1012.22 1012.21 1012.35 1012.62 1013.01 1013.46 1013.93 1014.38 1014.77 1015.11 1015.38 1015.60 1015.80 1015.97 1016.15 1016.33 1016.50 1016.67 1016.83 1016.98
1012.83 1012.90 1013.04 1013.23 1013.43 1013.60 1013.71 1013.75 1013.73 1013.69 1013.65 1013.65 1013.69 1013.79 1013.90 1014.00 1014.05 1014.00 1013.83 1013.56 1013.21 1012.83 1012.47 1012.21 1012.07 1012.10 1012.28 1012.59 1013.01 1013.48 1013.95 1014.40 1014.80 1015.13 1015.41 1015.65 1015.85 1016.03 1016.20 1016.37 1016.54 1016.70 1016.85
1012.69 1012.71 1012.80 1012.95 1013.12 1013.27 1013.38 1013.44 1013.45 1013.45 1013.46 1013.50 1013.60 1013.75 1013.92 1014.08 1014.17 1014.16 1014.02 1013.76 1013.39 1012.97 1012.55 1012.20 1011.96 1011.88 1011.96 1012.20 1012.56 1013.00 1013.48 1013.96 1014.40 1014.78 1015.11 1015.38 1015.61 1015.80 1015.98 1016.14 1016.30 1016.47 1016.63
1012.48 1012.46 1012.52 1012.63 1012.77 1012.91 1013.02 1013.09 1013.13 1013.15 1013.19 1013.26 1013.38 1013.55 1013.75 1013.94 1014.07 1014.10 1014.01 1013.78 1013.43 1013.01 1012.56 1012.16 1011.84 1011.68 1011.67 1011.82 1012.11 1012.50 1012.96 1013.43 1013.89 1014.31 1014.67 1014.97 1015.22 1015.43 1015.62 1015.79 1015.96 1016.13 1016.32
1012.19 1012.16 1012.20 1012.30 1012.43 1012.56 1012.68 1012.76 1012.81 1012.84 1012.88 1012.94 1013.06 1013.22 1013.41 1013.61 1013.76 1013.83 1013.78 1013.60 1013.30 1012.91 1012.48 1012.05 1011.70 1011.47 1011.38 1011.44 1011.64 1011.97 1012.37 1012.82 1013.27 1013.69 1014.07 1014.40 1014.68 1014.91 1015.12 1015.31 1015.50 1015.69 1015.90
1011.83 1011.81 1011.86 1011.96 1012.10 1012.25 1012.38 1012.47 1012.52 1012.55 1012.57 1012.60 1012.68 1012.80 1012.96 1013.13 1013.28 1013.37 1013.36 1013.25 1013.01 1012.68 1012.29 1011.88 1011.52 1011.24 1011.07 1011.05 1011.17 1011.40 1011.74 1012.13 1012.54 1012.95 1013.34 1013.68 1013.98 1014.24 1014.48 1014.70 1014.91 1015.14 1015.37
1011.43 1011.43 1011.50 1011.63 1011.80 1011.97 1012.12 1012.23 1012.29 1012.30 1012.29 1012.27 1012.29 1012.34 1012.44 1012.57 1012.70 1012.79 1012.82 1012.76 1012.60 1012.34 1012.01 1011.64 1011.28 1010.98 1010.76 1010.66 1010.69 1010.83 1011.07 1011.39 1011.76 1012.14 1012.51 1012.86 1013.18 1013.47 1013.73 1013.98 1014.22 1014.47 1014.73
1011.00 1011.04 1011.15 1011.32 1011.53 1011.73 1011.91 1012.04 1012.10 1012.09 1012.04 1011.97 1011.92 1011.89 1011.92 1011.99 1012.08 1012.17 1012.22 1012.21 1012.12 1011.93 1011.67 1011.36 1011.02 1010.71 1010.45 1010.28 1010.22 1010.27 1010.42 1010.66 1010.96 1011.30 1011.65 1012.00 1012.33 1012.63 1012.92 1013.19 1013.45 1013.72 1013.99
1010.58 1010.67 1010.82 1011.03 1011.27 1011.51 1011.72 1011.87 1011.93 1011.91 1011.83 1011.71 1011.58 1011.48 1011.43 1011.44 1011.48 1011.56 1011.62 1011.64 1011.61 1011.49 1011.29 1011.03 1010.73 1010.42 1010.14 1009.92 1009.80 1009.76 1009.83 1009.99 1010.23 1010.51 1010.83 1011.15 1011.47 1011.78 1012.08 1012.36 1012.63 1012.90 1013.18
1010.20 1010.32 1010.50 1010.73 1011.01 1011.27 1011.51 1011.67 1011.74 1011.71 1011.60 1011.44 1011.27 1011.11 1010.99 1010.94 1010.94 1010.98 1011.04 1011.09 1011.09 1011.02 1010.88 1010.67 1010.41 1010.12 1009.84 1009.59 1009.42 1009.32 1009.32 1009.41 1009.58 1009.81 1010.08 1010.37 1010.67 1010.96 1011.25 1011.52 1011.79 1012.05 1012.32
1009.88 1010.00 1010.19 1010.44 1010.72 1011.00 1011.24 1011.41 1011.49 1011.46 1011.34 1011.15 1010.94 1010.74 1010.58 1010.47 1010.43 1010.45 1010.50 1010.55 1010.57 1010.54 1010.44 1010.27 1010.05 1009.79 1009.52 1009.27 1009.07 1008.94 1008.89 1008.92 1009.03 1009.20 1009.41 1009.66 1009.92 1010.19 1010.45 1010.70 1010.95 1011.20 1011.45
1009.60 1009.71 1009.89 1010.13 1010.40 1010.68 1010.92 1011.08 1011.15 1011.12 1011.00 1010.81 1010.58 1010.36 1010.16 1010.02 1009.95 1009.93 1009.96 1010.00 1010.02 1010.01 1009.94 1009.82 1009.63 1009.41 1009.17 1008.94 1008.73 1008.59 1008.50 1008.49 1008.54 1008.66 1008.81 1009.01 1009.22 1009.44 1009.67 1009.90 1010.13 1010.36 1010.61
1009.38 1009.46 1009.61 1009.82 1010.07 1010.32 1010.53 1010.68 1010.75 1010.71 1010.59 1010.39 1010.16 1009.93 1009.72 1009.56 1009.45 1009.41 1009.40 1009.41 1009.43 1009.42 1009.37 1009.26 1009.12 1008.93 1008.73 1008.53 1008.35 1008.20 1008.11 1008.06 1008.07 1008.13 1008.23 1008.36 1008.52 1008.69 1008.88 1009.09 1009.31 1009.55 1009.81
1009.21 1009.25 1009.36 1009.53 1009.74 1009.95 1010.13 1010.25 1010.29 1010.25 1010.12 1009.93 1009.70 1009.46 1009.24 1009.06 1008.93 1008.84 1008.80 1008.78 1008.76 1008.74 1008.68 1008.60 1008.48 1008.34 1008.18 1008.02 1007.87 1007.74 1007.64 1007.58 1007.55 1007.55 1007.59 1007.67 1007.77 1007.90 1008.07 1008.27 1008.50 1008.77 1009.07
1009.10 1009.10 1009.17 1009.30 1009.45 1009.62 1009.75 1009.83 1009.85 1009.78 1009.64 1009.45 1009.22 1008.97 1008.74 1008.53 1008.37 1008.24 1008.15 1008.08 1008.02 1007.97 1007.90 1007.82 1007.73 1007.61 1007.50 1007.37 1007.26 1007.15 1007.05 1006.97 1006.92 1006.88 1006.87 1006.89 1006.95 1007.05 1007.21 1007.42 1007.69 1008.01 1008.38
1009.04 1009.02 1009.06 1009.15 1009.26 1009.37 1009.46 1009.50 1009.48 1009.38 1009.22 1009.01 1008.77 1008.51 1008.25 1008.02 1007.80 1007.62 1007.47 1007.35 1007.23 1007.13 1007.04 1006.95 1006.86 1006.77 1006.68 1006.60 1006.51 1006.42 1006.33 1006.24 1006.16 1006.08 1006.02 1006.00 1006.03 1006.12 1006.28 1006.53 1006.86 1007.26 1007.73
1009.05 1009.02 1009.05 1009.11 1009.19 1009.26 1009.31 1009.30 1009.23 1009.10 1008.91 1008.68 1008.41 1008.12 1007.83 1007.55 1007.28 1007.04 1006.82 1006.63 1006.45 1006.29 1006.16 1006.04 1005.95 1005.86 1005.79 1005.73 1005.66 1005.58 1005.50 1005.40 1005.29 1005.18 1005.09 1005.04 1005.05 1005.14 1005.32 1005.62 1006.02 1006.52 1007.10
1009.14 1009.11 1009.14 1009.19 1009.25 1009.29 1009.30 1009.25 1009.14 1008.97 1008.75 1008.48 1008.17 1007.85 1007.51 1007.18 1006.85 1006.54 1006.25 1005.98 1005.73 1005.52 1005.33 1005.18 1005.06 1004.97 1004.90 1004.84 1004.78 1004.71 1004.62 1004.50 1004.38 1004.24 1004.13 1004.06 1004.06 1004.15 1004.37 1004.71 1005.18 1005.77 1006.46
Thickness
5788 5787 5785 5784 5785 5785 5784 5782 5781 5780 5780 5779 5779 5778 5777 5775 5775 5773 5771 5770 5770 5769 5768 5767 5765 5763 5761 5759 5757 5756 5754 5752 5751 5750 5749 5747 5746 5745 5744 5742 5741 5741 5740
5787 5785 5783 5783 5783 5783 5783 5782 5781 5779 5778 5777 5776 5776 5776 5774 5773 5772 5771 5769 5768 5768 5767 5766 5764 5763 5761 5760 5758 5756 5754 5752 5751 5750 5748 5747 5746 5744 5743 5742 5741 5740 5739
5786 5785 5783 5782 5782 5782 5781 5781 5779 5778 5776 5775 5774 5774 5774 5773 5772 5771 5770 5769 5767 5766 5765 5764 5763 5762 5761 5760 5758 5756 5754 5753 5751 5750 5748 5747 5746 5744 5743 5742 5741 5740 5738
5786 5784 5783 5781 5780 5780 5779 5778 5776 5774 5772 5771 5771 5772 5772 5771 5771 5770 5769 5768 5766 5766 5764 5763 5762 5761 5760 5759 5758 5756 5754 5752 5750 5749 5748 5747 5745 5744 5743 5742 5740 5739 5738
5784 5783 5781 5780 5780 5779 5777 5776 5773 5771 5769 5769 5770 5770 5770 5770 5769 5769 5768 5767 5766 5765 5764 5762 5760 5760 5758 5758 5757 5755 5753 5751 5750 5748 5747 5746 5745 5744 5743 5741 5740 5739 5738
5783 5781 5780 5779 5778 5776 5774 5772 5770 5770 5768 5767 5768 5768 5769 5769 5768 5768 5767 5767 5765 5764 5762 5761 5759 5758 5757 5756 5755 5754 5752 5750 5749 5747 5746 5745 5744 5742 5742 5741 5740 5738 5737
5783 5781 5779 5778 5776 5774 5771 5770 5768 5767 5766 5766 5763 5762 5765 5768 5767 5767 5766 5765 5764 5763 5761 5760 5758 5757 5755 5754 5753 5751 5750 5748 5747 5745 5744 5743 5742 5741 5741 5739 5738 5738 5736
5782 5781 5778 5776 5775 5772 5769 5768 5766 5763 5764 5765 5759 5755 5752 5755 5761 5766 5764 5763 5762 5761 5760 5760 5758 5756 5754 5752 5751 5749 5748 5746 5745 5743 5742 5741 5740 5740 5739 5738 5737 5736 5735
5782 5779 5777 5775 5774 5771 5767 5766 5764 5761 5759 5761 5761 5754 5746 5743 5750 5758 5761 5761 5760 5758 5758 5758 5757 5755 5754 5752 5750 5748 5746 5744 5743 5741 5740 5739 5738 5738 5737 5737 5736 5735 5734
5780 5777 5775 5773 5771 5769 5766 5765 5763 5761 5758 5755 5757 5758 5755 5751 5745 5745 5752 5756 5757 5756 5755 5756 5755 5753 5751 5750 5748 5746 5744 5742 5741 5739 5738 5737 5737 5736 5735 5734 5733 5732 5732
5778 5775 5772 5770 5768 5766 5764 5762 5760 5758 5757 5753 5753 5753 5753 5752 5750 5743 5740 5745 5749 5752 5753 5753 5752 5751 5749 5748 5746 5744 5742 5740 5738 5736 5735 5735 5734 5733 5732 5732 5731 5730 5729
5774 5772 5770 5767 5765 5762 5760 5758 5756 5755 5753 5752 5750 5750 5748 5746 5744 5743 5739 5740 5741 5746 5750 5750 5749 5748 5746 5744 5743 5741 5739 5737 5735 5733 5732 5731 5731 5730 5729 5728 5727 5726 5726
5770 5768 5766 5763 5761 5759 5758 5756 5753 5751 5750 5748 5747 5746 5746 5746 5746 5743 5738 5736 5736 5740 5744 5745 5746 5745 5743 5741 5739 5737 5736 5734 5732 5730 5729 5728 5727 5726 5725 5724 5723 5723 5722
5768 5766 5763 5760 5758 5756 5754 5752 5750 5748 5747 5745 5744 5743 5742 5743 5743 5741 5737 5732 5728 5730 5734 5736 5740 5740 5739 5737 5735 5733 5731 5730 5728 5727 5725 5724 5723 5722 5721 5720 5719 5718 5718
5767 5764 5760 5757 5754 5752 5750 5748 5745 5744 5742 5741 5739 5738 5737 5738 5738 5738 5737 5733 5725 5719 5721 5728 5730 5734 5733 5731 5730 5728 5727 5725 5724 5722 5721 5720 5718 5717 5716 5715 5714 5714 5713
5763 5760 5757 5753 5750 5748 5746 5743 5741 5740 5738 5736 5735 5732 5731 5731 5732 5732 5731 5730 5727 5720 5716 5722 5724 5726 5726 5726 5725 5723 5722 5721 5720 5719 5717 5716 5714 5713 5712 5711 5710 5709 5709
5759 5755 5752 5749 5746 5744 5741 5738 5736 5735 5732 5731 5730 5728 5726 5725 5724 5724 5724 5723 5721 5718 5712 5715 5718 5720 5719 5718 5718 5717 5717 5716 5715 5714 5713 5712 5710 5709 5708 5706 5705 5704 5704
5754 5751 5748 5744 5742 5739 5736 5733 5730 5729 5727 5725 5724 5722 5720 5720 5717 5717 5716 5715 5714 5714 5710 5706 5709 5711 5711 5712 5712 5711 5711 5711 5710 5709 5708 5707 5706 5704 5703 5702 5701 5700 5698
5749 5746 5743 5739 5736 5733 5730 5727 5725 5723 5722 5721 5719 5717 5715 5713 5711 5710 5709 5708 5708 5708 5706 5702 5702 5704 5705 5706 5705 5704 5705 5704 5704 5704 5703 5702 5700 5699 5698 5697 5696 5694 5693
5744 5740 5737 5734 5731 5728 5724 5721 5718 5716 5715 5714 5713 5712 5711 5708 5706 5704 5703 5701 5701 5699 5698 5696 5695 5696 5696 5698 5697 5694 5694 5695 5695 5697 5696 5695 5694 5693 5692 5691 5690 5689 5687
5739 5735 5731 5727 5725 5722 5719 5714 5711 5710 5708 5707 5707 5706 5705 5703 5701 5699 5697 5694 5693 5691 5689 5688 5687 5687 5687 5686 5685 5686 5685 5686 5687 5689 5688 5688 5687 5686 5685 5684 5683 5682 5681
5731 5728 5724 5721 5718 5715 5711 5708 5705 5702 5701 5700 5698 5697 5697 5696 5694 5691 5689 5688 5686 5683 5681 5679 5678 5677 5677 5678 5677 5677 5676 5675 5674 5680 5679 5679 5680 5679 5678 5678 5677 5676 5675
5725 5721 5718 5715 5711 5706 5703 5700 5698 5695 5694 5692 5690 5688 5688 5688 5686 5683 5682 5681 5679 5678 5676 5673 5670 5669 5669 5670 5668 5667 5666 5666 5666 5670 5671 5670 5672 5670 5672 5672 5670 5669 5667
5718 5714 5711 5708 5704 5700 5696 5693 5690 5688 5687 5685 5684 5682 5679 5678 5678 5675 5674 5673 5672 5671 5669 5667 5666 5665 5665 5664 5662 5661 5660 5660 5662 5663 5663 5660 5662 5662 5664 5663 5663 5661 5660
5711 5707 5704 5701 5696 5692 5689 5686 5682 5681 5680 5678 5677 5676 5673 5671 5668 5667 5666 5664 5663 5662 5663 5661 5660 5659 5658 5658 5656 5653 5651 5649 5650 5653 5655 5652 5653 5654 5654 5655 5655 5653 5653
5704 5700 5697 5693 5690 5685 5682 5678 5675 5673 5671 5669 5668 5666 5665 5662 5660 5658 5656 5655 5652 5652 5653 5653 5652 5652 5652 5651 5650 5647 5645 5642 5641 5642 5646 5644 5644 5643 5642 5646 5646 5645 5643